IRIDIUM 33 DEB, 34508

Orbit data source: Space-Track

IRIDIUM 33 DEB, 34508 is space debris in LEO originally from a launch on Sun, 14 Sep 1997 UTC launched from the Tyuratam Missile And Space Complex (TTMTR). The debris from Iridium 33, an American commercial communications satellite, has been tracked extensively since its accidental collision with the defunct Russian satellite Cosmos 2251 in 2009. This event, occurring at high speed in low Earth orbit (LEO), generated thousands of pieces of space debris, significantly increasing the risk of further collisions. The Iridium 33 debris cloud has impacted space traffic management and orbital debris mitigation strategies, making it a subject of ongoing study in space situational awareness.

Loading next visibility...
Identifier
34508, 1997-051GZ
Orbit
LEO
Country
Flag of USUS
Related business
Manufacturer
Unknown
Mission
Spacecraft
Bus & Motor
Unknown
Mass
Unknown
Launch date (UTC)
1997-09-14 (28 years ago)
Launch vehicle
Unknown
Launch site
Tyuratam Missile And Space Complex (TTMTR)
Object type
Payload
Rocket body
Debris
Shape & HBR
Unknown shape, 0.1 m
Radar Cross Section
Small (<0.1 m²)

Expand to show TLE details & history
Last TLE update: 22 hours ago

TLE from 22 hours ago
0 IRIDIUM 33 DEB
1 34508U 97051GZ  25307.43696231  .00003764  00000-0  12123-2 0  9994
2 34508  86.3684 119.2985 0064339 303.2309  56.2732 14.37886298867447
Epoch: 2025-11-03T10:29Z
TLE epoch observation values (Epoch: 2025-11-03T10:29:13.543Z)
Latitude
Longitude
-80.94628°
Altitude
743.228 km
Speed
7.496 km/s
True Right ascension
07h 57m 11s
True Declination
0° 00' 00"
Sunlit
Object was in daylight at epoch
Visualization orbit readout
Latitude
Unknown
Longitude
Unknown
Altitude
Unknown
Speed
Unknown
Apparent Right ascension
Unknown
Apparent Declination
Unknown
Sunlit
N/A
Visualization observer readout
Local Sidereal Time
04:23:09
Azimuth
Unknown
Elevation
Unknown
Doppler factor
Unknown
Orbital elements
Apogee altitude
808.392 km
Perigee altitude
716.509 km
Semi-major axis
7,140.587 km
Eccentricity
0.00643
Inclination
86.3684°
RAAN
119.2985°
Arg. of periapsis
303.2309°
True anomaly
56.88912°
Mean anomaly
56.2732°
Eccentric anomaly
56.58089°
Mean motion
3.59702 °/min
Orbital period
100.08 mins
BSTAR
0.0012123
Loading maneuver chart data...
Computing Atmospheric mass density...

Documentation

Showing up to 5 results
|